Location: Dalton
(34.7700°N, 84.9700°W)
Time: 23:13:43
(UTC-04:00)

Tiangong 1 - Pass Details

Date: 12 October 2017
Orbit: 293 x 320 km, 42.8° (Epoch: 20 October)

Event Time Altitude Azimuth Distance (km) Brightness Sun altitude
Rises 19:41:18 0° 300° (WNW) 2,045 5.8 -7.5°
Reaches altitude 10° 19:43:48 10° 325° (NW) 1,208 4.0 -8.0°
Maximum altitude 19:45:33 16° 5° (N) 942 2.9 -8.4°
Drops below altitude 10° 19:47:18 10° 46° (NE) 1,196 3.1 -8.7°
Enters shadow 19:47:32 - 50° (NE) 1,263 3.2 -8.8°
